Year,Month,Day,Hour,Minute,Value (Times are PST for temperature in C)
2008,09,15,00,00,12.40
2008,09,15,00,01,12.40
2008,09,15,00,02,12.40
2008,09,15,00,03,12.40
2008,09,15,00,04,12.40
2008,09,15,00,05,12.40
2008,09,15,00,06,12.40
2008,09,15,00,07,12.40
2008,09,15,00,08,12.40
2008,09,15,00,09,12.40
2008,09,15,00,10,12.40
2008,09,15,00,11,12.40
2008,09,15,00,12,12.40
2008,09,15,00,13,12.40
2008,09,15,01,04,11.60
2008,09,15,01,05,11.60
2008,09,15,01,06,11.60
2008,09,15,01,07,11.60
2008,09,15,01,08,11.60
2008,09,15,01,09,11.60
2008,09,15,01,10,11.50
2008,09,15,01,11,11.50
2008,09,15,01,12,11.50
2008,09,15,01,13,11.50
2008,09,15,01,14,11.50
2008,09,15,01,15,11.50
2008,09,15,01,16,11.50
2008,09,15,01,17,11.50
2008,09,15,01,18,11.50
2008,09,15,01,19,11.50
2008,09,15,01,20,11.60
2008,09,15,01,21,11.60
2008,09,15,01,22,11.60
2008,09,15,01,23,11.50
2008,09,15,01,24,11.50
2008,09,15,01,25,11.50
2008,09,15,01,26,11.50
2008,09,15,01,27,11.50
2008,09,15,01,28,11.50
2008,09,15,01,29,11.50
2008,09,15,01,30,11.50
2008,09,15,01,31,11.40
2008,09,15,01,32,11.40
2008,09,15,01,33,11.40
2008,09,15,01,34,11.40
2008,09,15,01,35,11.40
2008,09,15,01,36,11.30
2008,09,15,01,37,11.30
2008,09,15,01,38,11.30
2008,09,15,01,39,11.30
2008,09,15,01,40,11.20
2008,09,15,01,41,11.20
2008,09,15,01,42,11.20
2008,09,15,01,43,11.20
2008,09,15,01,44,11.10
2008,09,15,01,45,11.10
2008,09,15,01,46,11.10
2008,09,15,01,47,11.10
2008,09,15,01,48,11.10
2008,09,15,01,49,11.10
2008,09,15,01,50,11.10
2008,09,15,01,51,11.10
2008,09,15,01,52,11.10
2008,09,15,01,53,11.10
2008,09,15,01,54,11.10
2008,09,15,01,55,11.10
2008,09,15,04,27,9.40
2008,09,15,04,28,9.40
2008,09,15,04,29,9.40
2008,09,15,04,30,9.40
2008,09,15,04,31,9.40
2008,09,15,04,32,9.40
2008,09,15,04,33,9.40
2008,09,15,04,34,9.40
2008,09,15,04,35,9.40
2008,09,15,04,36,9.50
2008,09,15,04,37,9.50
2008,09,15,04,38,9.50
2008,09,15,04,39,9.50
2008,09,15,04,40,9.50
2008,09,15,04,41,9.40
2008,09,15,04,42,9.40
2008,09,15,04,43,9.40
2008,09,15,04,44,9.40
2008,09,15,04,45,9.40
2008,09,15,04,46,9.40
2008,09,15,04,47,9.40
2008,09,15,04,48,9.30
2008,09,15,04,49,9.30
2008,09,15,04,50,9.30
2008,09,15,04,51,9.30
2008,09,15,04,52,9.30
2008,09,15,04,53,9.20
2008,09,15,04,54,9.20
2008,09,15,04,55,9.20
2008,09,15,04,56,9.20
2008,09,15,04,57,9.20
2008,09,15,04,58,9.20
2008,09,15,04,59,9.10
2008,09,15,05,00,9.10
2008,09,15,05,01,9.10
2008,09,15,05,02,9.10
2008,09,15,05,03,9.10
2008,09,15,05,04,9.10
2008,09,15,05,05,9.00
2008,09,15,05,06,9.00
2008,09,15,05,07,9.00
2008,09,15,05,08,9.00
2008,09,15,05,09,9.00
2008,09,15,05,10,9.00
2008,09,15,05,11,8.90
2008,09,15,05,12,8.90
2008,09,15,05,13,8.90
2008,09,15,05,14,8.90
2008,09,15,05,15,8.90
2008,09,15,05,16,8.90
2008,09,15,05,17,8.90
2008,09,15,05,18,8.90
2008,09,15,05,19,8.90
2008,09,15,05,20,8.90
2008,09,15,05,21,8.90
2008,09,15,05,22,8.90
2008,09,15,05,23,8.90
2008,09,15,05,24,8.90
2008,09,15,05,25,8.90
2008,09,15,05,26,8.80
2008,09,15,05,27,8.80
2008,09,15,05,28,8.80
2008,09,15,05,29,8.80
2008,09,15,05,30,8.80
2008,09,15,05,31,8.80
2008,09,15,05,32,8.80
2008,09,15,05,33,8.80
2008,09,15,05,34,8.80
2008,09,15,05,35,8.80
2008,09,15,05,36,8.80
2008,09,15,05,37,8.80
2008,09,15,05,38,8.80
2008,09,15,05,39,8.80
2008,09,15,05,40,8.80
2008,09,15,05,41,8.80
2008,09,15,05,42,8.80
2008,09,15,05,43,8.80
2008,09,15,05,44,8.90
2008,09,15,05,45,8.90
2008,09,15,05,46,8.90
2008,09,15,05,47,8.90
2008,09,15,05,48,8.90
2008,09,15,05,49,8.80
2008,09,15,05,50,8.90
2008,09,15,05,51,8.90
2008,09,15,05,52,8.90
2008,09,15,05,53,8.90
2008,09,15,05,54,8.90
2008,09,15,05,55,8.90
2008,09,15,05,56,8.90
2008,09,15,05,57,8.90
2008,09,15,05,58,8.90
2008,09,15,05,59,8.90
2008,09,15,06,00,8.90
2008,09,15,06,01,8.90
2008,09,15,06,02,8.90
2008,09,15,06,03,8.90
2008,09,15,06,04,8.90
2008,09,15,06,05,8.90
2008,09,15,06,06,8.90
2008,09,15,06,07,8.90
2008,09,15,06,08,8.80
2008,09,15,06,09,8.80
2008,09,15,06,10,8.80
2008,09,15,06,11,8.80
2008,09,15,06,12,8.80
2008,09,15,06,13,8.80
2008,09,15,06,14,8.80
2008,09,15,06,15,8.80
2008,09,15,06,16,8.80
2008,09,15,06,17,8.90
2008,09,15,06,18,8.90
2008,09,15,06,19,8.90
2008,09,15,06,20,8.90
2008,09,15,06,21,8.90
2008,09,15,06,22,8.90
2008,09,15,06,23,8.90
2008,09,15,06,24,8.90
2008,09,15,06,25,8.90
2008,09,15,06,26,8.90
2008,09,15,06,27,8.90
2008,09,15,06,28,8.90
2008,09,15,06,29,8.90
2008,09,15,06,30,8.90
2008,09,15,06,31,8.90
2008,09,15,06,32,8.90
2008,09,15,06,33,8.90
2008,09,15,06,34,8.90
2008,09,15,06,35,8.90
2008,09,15,06,36,8.90
2008,09,15,06,37,8.90
2008,09,15,06,38,8.90
2008,09,15,06,39,8.90
2008,09,15,06,40,8.90
2008,09,15,06,41,8.90
2008,09,15,06,42,8.90
2008,09,15,06,43,8.90
2008,09,15,06,44,8.90
2008,09,15,06,45,8.90
2008,09,15,06,46,8.90
2008,09,15,06,47,8.80
2008,09,15,06,48,8.80
2008,09,15,06,49,8.80
2008,09,15,06,50,8.80
2008,09,15,06,51,8.80
2008,09,15,06,52,8.90
2008,09,15,06,53,8.90
2008,09,15,06,54,8.90
2008,09,15,06,55,8.80
2008,09,15,06,56,8.80
2008,09,15,06,57,8.80
2008,09,15,06,58,8.80
2008,09,15,06,59,8.80
2008,09,15,07,00,8.80
2008,09,15,07,01,8.80
2008,09,15,07,02,8.80
2008,09,15,07,03,8.80
2008,09,15,07,04,8.80
2008,09,15,07,05,8.80
2008,09,15,07,06,8.80
2008,09,15,07,07,8.80
2008,09,15,07,08,8.80
2008,09,15,07,09,8.80
2008,09,15,07,10,8.80
2008,09,15,07,11,8.80
2008,09,15,07,12,8.80
2008,09,15,07,13,8.70
2008,09,15,07,14,8.70
2008,09,15,07,15,8.70
2008,09,15,07,16,8.70
2008,09,15,07,17,8.70
2008,09,15,07,18,8.70
2008,09,15,07,19,8.80
2008,09,15,07,20,8.80
2008,09,15,07,21,8.80
2008,09,15,07,22,8.80
2008,09,15,07,23,8.80
2008,09,15,07,24,8.80
2008,09,15,07,25,8.80
2008,09,15,07,26,8.80
2008,09,15,07,27,8.80
2008,09,15,07,28,8.80
2008,09,15,07,29,8.80
2008,09,15,07,30,8.80
2008,09,15,07,31,8.80
2008,09,15,07,32,8.80
2008,09,15,07,33,8.80
2008,09,15,07,34,8.80
2008,09,15,07,35,8.80
2008,09,15,07,36,8.80
2008,09,15,07,37,8.80
2008,09,15,07,38,8.80
2008,09,15,07,39,8.90
2008,09,15,07,40,8.90
2008,09,15,07,41,8.90
2008,09,15,07,42,8.90
2008,09,15,07,43,8.90
2008,09,15,07,44,8.90
2008,09,15,07,45,8.90
2008,09,15,07,46,9.00
2008,09,15,07,47,9.10
2008,09,15,07,48,9.10
2008,09,15,07,49,9.10
2008,09,15,07,50,9.10
2008,09,15,07,51,9.10
2008,09,15,07,52,9.20
2008,09,15,07,53,9.20
2008,09,15,07,54,9.20
2008,09,15,07,55,9.20
2008,09,15,07,56,9.20
2008,09,15,07,57,9.30
2008,09,15,07,58,9.30
2008,09,15,07,59,9.30
2008,09,15,08,00,9.30
2008,09,15,08,01,9.40
2008,09,15,08,02,9.40
2008,09,15,08,03,9.40
2008,09,15,08,04,9.50
2008,09,15,08,05,9.50
2008,09,15,08,06,9.50
2008,09,15,08,07,9.60
2008,09,15,08,08,9.60
2008,09,15,08,09,9.60
2008,09,15,08,10,9.70
2008,09,15,08,11,9.70
2008,09,15,08,12,9.70
2008,09,15,08,13,9.70
2008,09,15,08,14,9.80
2008,09,15,08,15,9.80
2008,09,15,08,16,9.80
2008,09,15,08,17,9.80
2008,09,15,08,18,9.90
2008,09,15,08,19,9.90
2008,09,15,08,20,10.00
2008,09,15,08,21,10.00
2008,09,15,08,22,10.10
2008,09,15,08,23,10.10
2008,09,15,08,24,10.20
2008,09,15,08,25,10.20
2008,09,15,08,26,10.30
2008,09,15,08,27,10.30
2008,09,15,08,28,10.30
2008,09,15,08,29,10.40
2008,09,15,08,30,10.40
2008,09,15,08,31,10.40
2008,09,15,08,32,10.50
2008,09,15,08,33,10.60
2008,09,15,08,34,10.60
2008,09,15,08,35,10.60
2008,09,15,08,36,10.70
2008,09,15,08,37,10.70
2008,09,15,08,38,10.70
2008,09,15,08,39,10.80
2008,09,15,08,40,10.80
2008,09,15,08,41,10.90
2008,09,15,08,42,11.00
2008,09,15,08,43,11.00
2008,09,15,08,44,11.10
2008,09,15,08,45,11.10
2008,09,15,08,46,11.20
2008,09,15,08,47,11.20
2008,09,15,08,48,11.20
2008,09,15,08,49,11.30
2008,09,15,08,50,11.30
2008,09,15,08,51,11.40
2008,09,15,08,52,11.40
2008,09,15,08,53,11.40
2008,09,15,08,54,11.50
2008,09,15,08,55,11.50
2008,09,15,08,56,11.60
2008,09,15,08,57,11.70
2008,09,15,08,58,11.80
2008,09,15,08,59,11.80
2008,09,15,09,00,11.90
2008,09,15,09,01,12.00
2008,09,15,09,02,12.10
2008,09,15,09,03,12.20
2008,09,15,09,04,12.30
2008,09,15,09,05,12.40
2008,09,15,09,06,12.50
2008,09,15,09,07,12.60
2008,09,15,09,08,12.70
2008,09,15,09,09,12.70
2008,09,15,09,10,12.80
2008,09,15,09,11,12.90
2008,09,15,09,12,12.90
2008,09,15,09,13,13.00
2008,09,15,09,14,13.10
2008,09,15,09,15,13.10
2008,09,15,09,16,13.20
2008,09,15,09,17,13.30
2008,09,15,09,18,13.40
2008,09,15,09,19,13.50
2008,09,15,09,20,13.50
2008,09,15,09,21,13.60
2008,09,15,09,22,13.70
2008,09,15,09,23,13.80
2008,09,15,09,24,13.80
2008,09,15,09,25,13.90
2008,09,15,09,26,14.00
2008,09,15,09,27,14.00
2008,09,15,09,28,14.10
2008,09,15,09,29,14.20
2008,09,15,09,30,14.20
2008,09,15,09,31,14.30
2008,09,15,09,32,14.40
2008,09,15,09,33,14.40
2008,09,15,09,34,14.50
2008,09,15,09,35,14.60
2008,09,15,09,36,14.60
2008,09,15,09,37,14.70
2008,09,15,09,38,14.80
2008,09,15,09,39,14.90
2008,09,15,09,40,15.00
2008,09,15,09,41,15.00
2008,09,15,09,42,15.00
2008,09,15,09,43,15.10
2008,09,15,09,44,15.20
2008,09,15,09,45,15.30
2008,09,15,09,46,15.30
2008,09,15,09,47,15.40
2008,09,15,09,48,15.40
2008,09,15,09,49,15.50
2008,09,15,09,50,15.60
2008,09,15,09,51,15.60
2008,09,15,09,52,15.70
2008,09,15,09,53,15.70
2008,09,15,09,54,15.80
2008,09,15,09,55,15.80
2008,09,15,09,56,15.90
2008,09,15,09,57,16.00
2008,09,15,09,58,16.00
2008,09,15,09,59,16.10
2008,09,15,10,00,16.20
2008,09,15,10,01,16.30
2008,09,15,10,02,16.50
2008,09,15,10,03,16.60
2008,09,15,10,04,16.70
2008,09,15,10,05,16.90
2008,09,15,10,06,16.90
2008,09,15,10,07,17.10
2008,09,15,10,08,17.20
2008,09,15,10,09,17.30
2008,09,15,10,10,17.40
2008,09,15,10,11,17.40
2008,09,15,10,12,17.60
2008,09,15,10,13,17.70
2008,09,15,10,14,17.80
2008,09,15,10,15,17.80
2008,09,15,10,16,17.90
2008,09,15,10,17,18.00
2008,09,15,10,18,18.10
2008,09,15,10,19,18.10
2008,09,15,10,20,18.20
2008,09,15,10,21,18.20
2008,09,15,10,22,18.30
2008,09,15,10,23,18.40
2008,09,15,10,24,18.50
2008,09,15,10,25,18.60
2008,09,15,10,26,18.70
2008,09,15,10,27,18.80
2008,09,15,10,28,18.90
2008,09,15,10,29,18.90
2008,09,15,10,30,19.00
2008,09,15,10,31,19.10
2008,09,15,10,32,19.20
2008,09,15,10,33,19.30
2008,09,15,10,34,19.30
2008,09,15,10,35,19.30
2008,09,15,10,36,19.30
2008,09,15,10,37,19.40
2008,09,15,10,38,19.40
2008,09,15,10,39,19.40
2008,09,15,10,40,19.40
2008,09,15,10,41,19.50
2008,09,15,10,42,19.50
2008,09,15,10,43,19.60
2008,09,15,10,44,19.60
2008,09,15,10,45,19.60
2008,09,15,10,46,19.70
2008,09,15,10,47,19.70
2008,09,15,10,48,19.70
2008,09,15,10,49,19.70
2008,09,15,10,50,19.70
2008,09,15,10,51,19.70
2008,09,15,10,52,19.70
2008,09,15,10,53,19.80
2008,09,15,10,54,19.80
2008,09,15,10,55,19.90
2008,09,15,10,56,19.90
2008,09,15,10,57,19.90
2008,09,15,10,58,20.00
2008,09,15,10,59,20.00
2008,09,15,11,00,20.00
2008,09,15,11,01,20.00
2008,09,15,11,02,20.00
2008,09,15,11,03,20.10
2008,09,15,11,04,20.10
2008,09,15,11,05,20.10
2008,09,15,11,06,20.20
2008,09,15,11,07,20.20
2008,09,15,11,08,20.30
2008,09,15,11,09,20.30
2008,09,15,11,10,20.40
2008,09,15,11,11,20.40
2008,09,15,11,12,20.40
2008,09,15,11,13,20.40
2008,09,15,11,14,20.40
2008,09,15,11,15,20.50
2008,09,15,11,16,20.50
2008,09,15,11,17,20.60
2008,09,15,11,18,20.60
2008,09,15,11,19,20.70
2008,09,15,11,20,20.70
2008,09,15,11,21,20.80
2008,09,15,11,22,20.90
2008,09,15,11,23,21.10
2008,09,15,11,24,21.30
2008,09,15,11,25,21.40
2008,09,15,11,26,21.50
2008,09,15,11,27,21.50
2008,09,15,11,28,21.60
2008,09,15,11,29,21.70
2008,09,15,11,30,21.80
2008,09,15,11,31,21.80
2008,09,15,11,32,21.90
2008,09,15,11,33,22.00
2008,09,15,11,34,22.00
2008,09,15,11,35,22.10
2008,09,15,11,36,22.10
2008,09,15,11,37,22.10
2008,09,15,11,38,22.10
2008,09,15,11,39,22.20
2008,09,15,11,40,22.20
2008,09,15,11,41,22.30
2008,09,15,11,42,22.30
2008,09,15,11,43,22.40
2008,09,15,11,44,22.40
2008,09,15,11,45,22.50
2008,09,15,11,46,22.50
2008,09,15,11,47,22.60
2008,09,15,11,48,22.70
2008,09,15,11,49,22.70
2008,09,15,11,50,22.70
2008,09,15,11,51,22.70
2008,09,15,11,52,22.70
2008,09,15,11,53,22.80
2008,09,15,11,54,22.90
2008,09,15,11,55,22.90
2008,09,15,11,56,22.90
2008,09,15,11,57,23.00
2008,09,15,11,58,23.10
2008,09,15,11,59,23.10
2008,09,15,12,00,23.10
2008,09,15,12,01,23.20
2008,09,15,12,02,23.30
2008,09,15,12,03,23.30
2008,09,15,12,04,23.40
2008,09,15,12,05,23.40
2008,09,15,12,06,23.50
2008,09,15,12,07,23.60
2008,09,15,12,08,23.60
2008,09,15,12,09,23.70
2008,09,15,12,10,23.80
2008,09,15,12,11,23.80
2008,09,15,12,12,23.80
2008,09,15,12,13,23.80
2008,09,15,12,14,23.80
2008,09,15,12,15,23.80
2008,09,15,12,16,23.90
2008,09,15,12,17,23.90
2008,09,15,12,18,24.00
2008,09,15,12,19,24.00
2008,09,15,12,20,24.00
2008,09,15,12,21,24.10
2008,09,15,12,22,24.10
2008,09,15,12,23,24.20
2008,09,15,12,24,24.30
2008,09,15,12,25,24.40
2008,09,15,12,26,24.40
2008,09,15,12,27,24.30
2008,09,15,12,28,24.30
2008,09,15,12,29,24.20
2008,09,15,12,30,24.20
2008,09,15,12,31,24.10
2008,09,15,12,32,24.00
2008,09,15,12,33,24.00
2008,09,15,12,34,24.00
2008,09,15,12,35,24.00
2008,09,15,12,36,24.00
2008,09,15,12,37,24.00
2008,09,15,12,38,24.00
2008,09,15,12,39,24.00
2008,09,15,12,40,24.10
2008,09,15,12,41,24.10
2008,09,15,12,42,24.20
2008,09,15,12,43,24.10
2008,09,15,12,44,24.10
2008,09,15,12,45,24.20
2008,09,15,12,46,24.20
2008,09,15,12,47,24.30
2008,09,15,12,48,24.40
2008,09,15,12,49,24.40
2008,09,15,12,50,24.40
2008,09,15,12,51,24.40
2008,09,15,12,52,24.50
2008,09,15,12,53,24.50
2008,09,15,12,54,24.60
2008,09,15,12,55,24.70
2008,09,15,12,56,24.70
2008,09,15,12,57,24.80
2008,09,15,12,58,24.80
2008,09,15,12,59,24.80
2008,09,15,13,00,24.80
2008,09,15,13,01,24.90
2008,09,15,13,02,24.90
2008,09,15,13,03,24.90
2008,09,15,13,04,24.90
2008,09,15,13,05,24.90
2008,09,15,13,06,25.00
2008,09,15,13,07,25.10
2008,09,15,13,08,25.10
2008,09,15,13,09,25.20
2008,09,15,13,10,25.20
2008,09,15,13,11,25.10
2008,09,15,13,12,25.00
2008,09,15,13,13,25.00
2008,09,15,13,14,25.10
2008,09,15,13,15,25.10
2008,09,15,13,16,25.20
2008,09,15,13,17,25.30
2008,09,15,13,18,25.50
2008,09,15,13,19,25.50
2008,09,15,13,20,25.60
2008,09,15,13,21,25.60
2008,09,15,13,22,25.70
2008,09,15,13,23,25.80
2008,09,15,13,24,25.90
2008,09,15,13,25,25.90
2008,09,15,13,26,25.90
2008,09,15,13,27,25.90
2008,09,15,13,28,26.00
2008,09,15,13,29,26.10
2008,09,15,13,30,26.20
2008,09,15,13,31,26.20
2008,09,15,13,32,26.30
2008,09,15,13,33,26.40
2008,09,15,13,34,26.40
2008,09,15,13,35,26.50
2008,09,15,13,36,26.60
2008,09,15,13,37,26.70
2008,09,15,13,38,26.70
2008,09,15,13,39,26.80
2008,09,15,13,40,26.80
2008,09,15,13,41,26.80
2008,09,15,13,42,26.80
2008,09,15,13,43,26.80
2008,09,15,13,44,26.80
2008,09,15,13,45,26.80
2008,09,15,13,46,26.80
2008,09,15,13,47,26.80
2008,09,15,13,48,26.80
2008,09,15,13,49,26.80
2008,09,15,13,50,26.70
2008,09,15,13,51,26.60
2008,09,15,13,52,26.60
2008,09,15,13,53,26.60
2008,09,15,13,54,26.60
2008,09,15,13,55,26.70
2008,09,15,13,56,26.70
2008,09,15,13,57,26.70
2008,09,15,13,58,26.80
2008,09,15,13,59,26.80
2008,09,15,14,00,26.80
2008,09,15,14,01,26.80
2008,09,15,14,02,26.80
2008,09,15,14,03,26.80
2008,09,15,14,04,26.80
2008,09,15,14,05,26.80
2008,09,15,14,06,26.80
2008,09,15,14,07,26.90
2008,09,15,14,08,26.90
2008,09,15,14,09,26.90
2008,09,15,14,10,27.00
2008,09,15,14,11,27.10
2008,09,15,14,12,27.10
2008,09,15,14,13,27.10
2008,09,15,14,14,27.20
2008,09,15,14,15,27.20
2008,09,15,14,16,27.20
2008,09,15,14,17,27.20
2008,09,15,14,18,27.10
2008,09,15,14,19,27.20
2008,09,15,14,20,27.20
2008,09,15,14,21,27.20
2008,09,15,14,22,27.30
2008,09,15,14,23,27.30
2008,09,15,14,24,27.40
2008,09,15,14,25,27.40
2008,09,15,14,26,27.40
2008,09,15,14,27,27.50
2008,09,15,14,28,27.50
2008,09,15,14,29,27.60
2008,09,15,14,30,27.60
2008,09,15,14,31,27.50
2008,09,15,14,32,27.30
2008,09,15,14,33,27.20
2008,09,15,14,34,27.10
2008,09,15,14,35,27.10
2008,09,15,14,36,27.10
2008,09,15,14,37,27.10
2008,09,15,14,38,27.10
2008,09,15,14,39,27.10
2008,09,15,14,40,27.10
2008,09,15,14,41,27.20
2008,09,15,14,42,27.30
2008,09,15,14,43,27.30
2008,09,15,14,44,27.30
2008,09,15,14,45,27.30
2008,09,15,14,46,27.30
2008,09,15,14,47,27.30
2008,09,15,14,48,27.30
2008,09,15,14,49,27.30
2008,09,15,14,50,27.30
2008,09,15,14,51,27.20
2008,09,15,14,52,27.20
2008,09,15,14,53,27.10
2008,09,15,14,54,27.10
2008,09,15,14,55,27.00
2008,09,15,14,56,27.00
2008,09,15,14,57,27.00
2008,09,15,14,58,27.00
2008,09,15,14,59,27.10
2008,09,15,15,00,27.10
2008,09,15,15,01,27.20
2008,09,15,15,02,27.30
2008,09,15,15,03,27.30
2008,09,15,15,04,27.30
2008,09,15,15,05,27.40
2008,09,15,15,06,27.40
2008,09,15,15,07,27.50
2008,09,15,15,08,27.60
2008,09,15,15,09,27.60
2008,09,15,15,10,27.60
2008,09,15,15,11,27.70
2008,09,15,15,12,27.70
2008,09,15,15,13,27.80
2008,09,15,15,14,27.80
2008,09,15,15,15,27.80
2008,09,15,15,16,27.80
2008,09,15,15,17,27.80
2008,09,15,15,18,27.80
2008,09,15,15,19,27.80
2008,09,15,15,20,27.70
2008,09,15,15,21,27.70
2008,09,15,15,22,27.70
2008,09,15,15,23,27.70
2008,09,15,15,24,27.80
2008,09,15,15,25,27.80
2008,09,15,15,26,27.80
2008,09,15,15,27,27.80
2008,09,15,15,28,27.80
2008,09,15,15,29,27.80
2008,09,15,15,30,27.70
2008,09,15,15,31,27.70
2008,09,15,15,32,27.70
2008,09,15,15,33,27.70
2008,09,15,15,34,27.70
2008,09,15,15,35,27.70
2008,09,15,15,36,27.70
2008,09,15,15,37,27.70
2008,09,15,15,38,27.70
2008,09,15,15,39,27.70
2008,09,15,15,40,27.70
2008,09,15,15,41,27.60
2008,09,15,15,42,27.60
2008,09,15,15,43,27.70
2008,09,15,15,44,27.70
2008,09,15,15,45,27.70
2008,09,15,15,46,27.70
2008,09,15,15,47,27.70
2008,09,15,15,48,27.70
2008,09,15,15,49,27.60
2008,09,15,15,50,27.50
2008,09,15,15,51,27.40
2008,09,15,15,52,27.30
2008,09,15,15,53,27.30
2008,09,15,15,54,27.30
2008,09,15,15,55,27.20
2008,09,15,15,56,27.20
2008,09,15,15,57,27.10
2008,09,15,15,58,27.00
2008,09,15,15,59,26.90
2008,09,15,16,00,27.00
2008,09,15,16,01,27.00
2008,09,15,16,02,27.00
2008,09,15,16,03,27.10
2008,09,15,16,04,27.10
2008,09,15,16,05,27.20
2008,09,15,16,06,27.30
2008,09,15,16,07,27.30
2008,09,15,16,08,27.40
2008,09,15,16,09,27.50
2008,09,15,16,10,27.60
2008,09,15,16,11,27.70
2008,09,15,16,12,27.70
2008,09,15,16,13,27.80
2008,09,15,16,14,27.80
2008,09,15,16,15,27.70
2008,09,15,16,16,27.70
2008,09,15,16,17,27.80
2008,09,15,16,18,27.80
2008,09,15,16,19,27.80
2008,09,15,16,20,27.80
2008,09,15,16,21,27.80
2008,09,15,16,22,27.80
2008,09,15,16,23,27.80
2008,09,15,16,24,27.80
2008,09,15,16,25,27.80
2008,09,15,16,26,27.80
2008,09,15,16,27,27.80
2008,09,15,16,28,27.70
2008,09,15,16,29,27.70
2008,09,15,16,30,27.70
2008,09,15,16,31,27.70
2008,09,15,16,32,27.60
2008,09,15,16,33,27.60
2008,09,15,16,34,27.60
2008,09,15,16,35,27.50
2008,09,15,16,36,27.50
2008,09,15,16,37,27.40
2008,09,15,16,38,27.40
2008,09,15,16,39,27.40
2008,09,15,16,40,27.40
2008,09,15,16,41,27.30
2008,09,15,16,42,27.30
2008,09,15,16,43,27.30
2008,09,15,16,44,27.30
2008,09,15,16,45,27.30
2008,09,15,16,46,27.30
2008,09,15,16,47,27.30
2008,09,15,16,48,27.30
2008,09,15,16,49,27.30
2008,09,15,16,50,27.30
2008,09,15,16,51,27.30
2008,09,15,16,52,27.30
2008,09,15,16,53,27.20
2008,09,15,16,54,27.10
2008,09,15,16,55,27.10
2008,09,15,16,56,27.10
2008,09,15,16,57,27.10
2008,09,15,16,58,27.00
2008,09,15,16,59,27.00
2008,09,15,17,00,26.90
2008,09,15,17,01,26.80
2008,09,15,17,02,26.70
2008,09,15,17,03,26.60
2008,09,15,17,04,26.60
2008,09,15,17,05,26.60
2008,09,15,17,06,26.60
2008,09,15,17,07,26.70
2008,09,15,17,08,26.70
2008,09,15,17,09,26.70
2008,09,15,17,10,26.70
2008,09,15,17,11,26.70
2008,09,15,17,12,26.70
2008,09,15,17,13,26.80
2008,09,15,17,14,26.80
2008,09,15,17,15,26.80
2008,09,15,17,16,26.80
2008,09,15,17,17,26.80
2008,09,15,17,18,26.80
2008,09,15,17,19,26.80
2008,09,15,17,20,26.80
2008,09,15,17,21,26.70
2008,09,15,17,22,26.70
2008,09,15,17,23,26.70
2008,09,15,17,24,26.70
2008,09,15,17,25,26.80
2008,09,15,17,26,26.80
2008,09,15,17,27,26.80
2008,09,15,17,28,26.70
2008,09,15,17,29,26.70
2008,09,15,17,30,26.70
2008,09,15,17,31,26.70
2008,09,15,17,32,26.70
2008,09,15,17,33,26.70
2008,09,15,17,34,26.70
2008,09,15,17,35,26.70
2008,09,15,17,36,26.70
2008,09,15,17,37,26.70
2008,09,15,17,38,26.80
2008,09,15,17,39,26.80
2008,09,15,17,40,26.80
2008,09,15,17,41,26.80
2008,09,15,17,42,26.70
2008,09,15,17,43,26.60
2008,09,15,17,44,26.60
2008,09,15,17,45,26.50
2008,09,15,17,46,26.40
2008,09,15,17,47,26.30
2008,09,15,17,48,26.20
2008,09,15,17,49,26.10
2008,09,15,17,50,25.90
2008,09,15,17,51,25.90
2008,09,15,17,52,25.80
2008,09,15,17,53,25.80
2008,09,15,17,54,25.70
2008,09,15,17,55,25.70
2008,09,15,17,56,25.70
2008,09,15,17,57,25.70
2008,09,15,17,58,25.70
2008,09,15,17,59,25.70
2008,09,15,18,00,25.60
2008,09,15,18,01,25.60
2008,09,15,18,02,25.60
2008,09,15,18,03,25.50
2008,09,15,18,04,25.50
2008,09,15,18,05,25.40
2008,09,15,18,06,25.40
2008,09,15,18,07,25.30
2008,09,15,18,08,25.20
2008,09,15,18,09,25.10
2008,09,15,18,10,25.00
2008,09,15,18,11,24.90
2008,09,15,18,12,24.80
2008,09,15,18,13,24.60
2008,09,15,18,14,24.50
2008,09,15,18,15,24.30
2008,09,15,18,16,24.20
2008,09,15,18,17,24.10
2008,09,15,18,18,24.00
2008,09,15,18,19,23.90
2008,09,15,18,20,23.80
2008,09,15,18,21,23.80
2008,09,15,18,22,23.80
2008,09,15,18,23,23.70
2008,09,15,18,24,23.70
2008,09,15,18,25,23.70
2008,09,15,18,26,23.60
2008,09,15,18,27,23.50
2008,09,15,18,28,23.40
2008,09,15,18,29,23.30
2008,09,15,18,30,23.20
2008,09,15,18,31,23.10
2008,09,15,18,32,23.00
2008,09,15,18,33,22.90
2008,09,15,18,34,22.80
2008,09,15,18,35,22.70
2008,09,15,18,36,22.70
2008,09,15,18,37,22.60
2008,09,15,18,38,22.50
2008,09,15,18,39,22.40
2008,09,15,18,40,22.40
2008,09,15,18,41,22.30
2008,09,15,18,42,22.20
2008,09,15,18,43,22.10
2008,09,15,18,44,22.10
2008,09,15,18,45,22.00
2008,09,15,18,46,21.90
2008,09,15,18,47,21.80
2008,09,15,18,48,21.80
2008,09,15,18,49,21.70
2008,09,15,18,50,21.70
2008,09,15,18,51,21.60
2008,09,15,18,52,21.50
2008,09,15,18,53,21.40
2008,09,15,18,54,21.30
2008,09,15,18,55,21.30
2008,09,15,18,56,21.20
2008,09,15,18,57,21.20
2008,09,15,18,58,21.10
2008,09,15,18,59,21.10
2008,09,15,19,00,21.10
2008,09,15,19,01,21.00
2008,09,15,19,02,20.90
2008,09,15,19,03,20.90
2008,09,15,19,04,20.80
2008,09,15,19,05,20.80
2008,09,15,19,06,20.70
2008,09,15,19,07,20.70
2008,09,15,19,08,20.60
2008,09,15,19,09,20.50
2008,09,15,19,10,20.50
2008,09,15,19,11,20.40
2008,09,15,19,12,20.30
2008,09,15,19,13,20.30
2008,09,15,19,14,20.20
2008,09,15,19,15,20.10
2008,09,15,19,16,20.10
2008,09,15,19,17,20.00
2008,09,15,19,18,19.90
2008,09,15,19,19,19.90
2008,09,15,19,20,19.80
2008,09,15,19,21,19.80
2008,09,15,19,22,19.70
2008,09,15,19,23,19.70
2008,09,15,19,24,19.60
2008,09,15,19,25,19.60
2008,09,15,19,26,19.50
2008,09,15,19,27,19.50
2008,09,15,19,28,19.40
2008,09,15,19,29,19.40
2008,09,15,19,30,19.40
2008,09,15,19,31,19.30
2008,09,15,19,32,19.30
2008,09,15,19,33,19.20
2008,09,15,19,34,19.10
2008,09,15,19,35,19.10
2008,09,15,19,36,19.00
2008,09,15,19,37,18.90
2008,09,15,19,38,18.90
2008,09,15,19,39,18.80
2008,09,15,19,40,18.80
2008,09,15,19,41,18.70
2008,09,15,19,42,18.70
2008,09,15,19,43,18.60
2008,09,15,19,44,18.60
2008,09,15,19,45,18.50
2008,09,15,19,46,18.50
2008,09,15,19,47,18.40
2008,09,15,19,48,18.40
2008,09,15,19,49,18.30
2008,09,15,19,50,18.30
2008,09,15,19,51,18.20
2008,09,15,19,52,18.20
2008,09,15,19,53,18.10
2008,09,15,19,54,18.00
2008,09,15,19,55,18.00
2008,09,15,19,56,17.90
2008,09,15,19,57,17.90
2008,09,15,19,58,17.80
2008,09,15,19,59,17.80
2008,09,15,20,00,17.70
2008,09,15,20,01,17.70
2008,09,15,20,02,17.70
2008,09,15,20,03,17.60
2008,09,15,20,04,17.60
2008,09,15,20,05,17.60
2008,09,15,20,06,17.50
2008,09,15,20,07,17.50
2008,09,15,20,08,17.40
2008,09,15,20,09,17.40
2008,09,15,20,10,17.40
2008,09,15,20,11,17.30
2008,09,15,20,12,17.30
2008,09,15,20,13,17.30
2008,09,15,20,14,17.20
2008,09,15,20,15,17.20
2008,09,15,20,16,17.20
2008,09,15,20,17,17.10
2008,09,15,20,18,17.10
2008,09,15,20,19,17.10
2008,09,15,20,20,17.00
2008,09,15,20,21,17.00
2008,09,15,20,22,16.90
2008,09,15,20,23,16.90
2008,09,15,20,24,16.90
2008,09,15,20,25,16.80
2008,09,15,20,26,16.80
2008,09,15,20,27,16.70
2008,09,15,20,28,16.70
2008,09,15,20,29,16.70
2008,09,15,20,30,16.60
2008,09,15,20,31,16.60
2008,09,15,20,32,16.60
2008,09,15,20,33,16.50
2008,09,15,20,34,16.50
2008,09,15,20,35,16.40
2008,09,15,20,36,16.40
2008,09,15,20,37,16.40
2008,09,15,20,38,16.40
2008,09,15,20,39,16.40
2008,09,15,20,40,16.30
2008,09,15,20,41,16.30
2008,09,15,20,42,16.30
2008,09,15,20,43,16.30
2008,09,15,20,44,16.30
2008,09,15,20,45,16.20
2008,09,15,20,46,16.20
2008,09,15,20,47,16.20
2008,09,15,20,48,16.20
2008,09,15,20,49,16.20
2008,09,15,20,50,16.20